User: anonymous
Location: Plum
(40.5000°N, 79.7500°W)
Time: 07:49:57
(UTC-04:00)
Language:

Cosmos 1825 - Orbit

View from above orbital plane
View from above orbital plane
View from above satellite
View from above satellite

Ground track
Ground track

The orbit data is extracted from the following two-line orbital elements,

1 17566U 87024A   14272.89891252  .00006637  00000-0  37434-3 0  1129
2 17566 082.5080 190.0686 0006727 065.3373 050.0292 15.12990964503584
Epoch (UTC): 29 September 2014 21:34:26
Eccentricity: 0.0006727
inclination: 82.5080°
perigee height: 522 km
apogee height: 532 km
right ascension of ascending node: 190.0686°
argument of perigee: 65.3373°
revolutions per day: 15.12990964
mean anomaly at epoch: 50.0292°
orbit number at epoch: 50358

The dashed part of the orbit path shows where the satellite is in the earth's shadow,  

DLR